owner,sensor,date,latitude,longitude,vertical_datum,sea_water_temperature,qcFlag
ADCP,ioos:station:wmo:42388:1,2020-11-01T00:00:00Z,27.7297,-91.1086,12.6,25.8,11111222
ADCP,ioos:station:wmo:42388:1,2020-11-01T00:10:00Z,27.7297,-91.1086,12.5,25.8,11111222
ADCP,ioos:station:wmo:42388:1,2020-11-01T00:20:00Z,27.7297,-91.1086,12.6,25.8,11111222
ADCP,ioos:station:wmo:42388:1,2020-11-01T00:30:00Z,27.7297,-91.1086,12.7,25.8,11111222
ADCP,ioos:station:wmo:42388:1,2020-11-01T00:40:00Z,27.7297,-91.1086,12.6,25.8,11111222
ADCP,ioos:station:wmo:42388:1,2020-11-01T00:50:00Z,27.7297,-91.1086,12.5,25.8,11111222
ADCP,ioos:station:wmo:42388:1,2020-11-01T01:00:00Z,27.7297,-91.1086,12.6,25.8,11111222
ADCP,ioos:station:wmo:42388:1,2020-11-01T01:10:00Z,27.7297,-91.1086,12.7,25.8,11111222
ADCP,ioos:station:wmo:42388:1,2020-11-01T01:20:00Z,27.7297,-91.1086,12.7,25.8,11111222
ADCP,ioos:station:wmo:42388:1,2020-11-01T01:30:00Z,27.7297,-91.1086,12.6,25.8,11111222
ADCP,ioos:station:wmo:42388:1,2020-11-01T01:40:00Z,27.7297,-91.1086,12.7,25.8,11111222
ADCP,ioos:station:wmo:42388:1,2020-11-01T01:50:00Z,27.7297,-91.1086,12.4,25.8,11111222
ADCP,ioos:station:wmo:42388:1,2020-11-01T02:00:00Z,27.7297,-91.1086,12.7,25.8,11111222
ADCP,ioos:station:wmo:42388:1,2020-11-01T02:10:00Z,27.7297,-91.1086,12.6,25.8,11111222
ADCP,ioos:station:wmo:42388:1,2020-11-01T02:20:00Z,27.7297,-91.1086,12.6,25.8,11111222
ADCP,ioos:station:wmo:42388:1,2020-11-01T02:30:00Z,27.7297,-91.1086,12.7,25.8,11111222
ADCP,ioos:station:wmo:42388:1,2020-11-01T02:40:00Z,27.7297,-91.1086,12.4,25.8,11111222
ADCP,ioos:station:wmo:42388:1,2020-11-01T02:50:00Z,27.7297,-91.1086,12.6,25.8,11111222
ADCP,ioos:station:wmo:42388:1,2020-11-01T03:00:00Z,27.7297,-91.1086,12.7,25.8,11111222
ADCP,ioos:station:wmo:42388:1,2020-11-01T03:10:00Z,27.7297,-91.1086,12.6,25.8,11111222
ADCP,ioos:station:wmo:42388:1,2020-11-01T03:20:00Z,27.7297,-91.1086,12.7,25.8,11111222
ADCP,ioos:station:wmo:42388:1,2020-11-01T03:30:00Z,27.7297,-91.1086,12.8,25.8,11111222
ADCP,ioos:station:wmo:42388:1,2020-11-01T03:40:00Z,27.7297,-91.1086,13.0,25.8,11111222
ADCP,ioos:station:wmo:42388:1,2020-11-01T03:50:00Z,27.7297,-91.1086,12.9,25.8,11111222
ADCP,ioos:station:wmo:42388:1,2020-11-01T04:00:00Z,27.7297,-91.1086,12.9,25.8,11111222
ADCP,ioos:station:wmo:42388:1,2020-11-01T04:10:00Z,27.7297,-91.1086,13.4,25.8,11111222
ADCP,ioos:station:wmo:42388:1,2020-11-01T04:20:00Z,27.7297,-91.1086,13.2,25.8,11111222
ADCP,ioos:station:wmo:42388:1,2020-11-01T04:30:00Z,27.7297,-91.1086,13.1,25.8,11111222
ADCP,ioos:station:wmo:42388:1,2020-11-01T04:40:00Z,27.7297,-91.1086,13.1,25.8,11111222
ADCP,ioos:station:wmo:42388:1,2020-11-01T04:50:00Z,27.7297,-91.1086,13.1,25.8,11111222
ADCP,ioos:station:wmo:42388:1,2020-11-01T05:00:00Z,27.7297,-91.1086,13.0,25.8,11111222
ADCP,ioos:station:wmo:42388:1,2020-11-01T05:10:00Z,27.7297,-91.1086,13.1,25.9,11111222
ADCP,ioos:station:wmo:42388:1,2020-11-01T05:20:00Z,27.7297,-91.1086,13.5,25.9,11111222
ADCP,ioos:station:wmo:42388:1,2020-11-01T05:30:00Z,27.7297,-91.1086,13.2,25.9,11111222
ADCP,ioos:station:wmo:42388:1,2020-11-01T05:40:00Z,27.7297,-91.1086,13.3,25.9,11111222
ADCP,ioos:station:wmo:42388:1,2020-11-01T05:50:00Z,27.7297,-91.1086,13.3,25.9,11111222
ADCP,ioos:station:wmo:42388:1,2020-11-01T06:00:00Z,27.7297,-91.1086,13.2,25.9,11111222
ADCP,ioos:station:wmo:42388:1,2020-11-01T06:10:00Z,27.7297,-91.1086,13.0,25.9,11111222
ADCP,ioos:station:wmo:42388:1,2020-11-01T06:20:00Z,27.7297,-91.1086,13.0,25.9,11111222
ADCP,ioos:station:wmo:42388:1,2020-11-01T06:30:00Z,27.7297,-91.1086,13.3,25.9,11111222
ADCP,ioos:station:wmo:42388:1,2020-11-01T06:40:00Z,27.7297,-91.1086,12.9,25.9,11111222
ADCP,ioos:station:wmo:42388:1,2020-11-01T06:50:00Z,27.7297,-91.1086,13.2,25.9,11111222
ADCP,ioos:station:wmo:42388:1,2020-11-01T07:00:00Z,27.7297,-91.1086,13.2,25.9,11111222
ADCP,ioos:station:wmo:42388:1,2020-11-01T07:10:00Z,27.7297,-91.1086,12.8,25.9,11111222
ADCP,ioos:station:wmo:42388:1,2020-11-01T07:20:00Z,27.7297,-91.1086,13.0,25.9,11111222
ADCP,ioos:station:wmo:42388:1,2020-11-01T07:30:00Z,27.7297,-91.1086,12.9,25.9,11111222
ADCP,ioos:station:wmo:42388:1,2020-11-01T07:40:00Z,27.7297,-91.1086,13.2,25.9,11111222
ADCP,ioos:station:wmo:42388:1,2020-11-01T07:50:00Z,27.7297,-91.1086,12.8,25.9,11111222
ADCP,ioos:station:wmo:42388:1,2020-11-01T08:00:00Z,27.7297,-91.1086,13.1,25.9,11111222
ADCP,ioos:station:wmo:42388:1,2020-11-01T08:10:00Z,27.7297,-91.1086,12.8,25.9,11111222
ADCP,ioos:station:wmo:42388:1,2020-11-01T08:20:00Z,27.7297,-91.1086,12.9,25.9,11111222
ADCP,ioos:station:wmo:42388:1,2020-11-01T08:30:00Z,27.7297,-91.1086,12.9,25.9,11111222
ADCP,ioos:station:wmo:42388:1,2020-11-01T08:40:00Z,27.7297,-91.1086,12.8,25.9,11111222
ADCP,ioos:station:wmo:42388:1,2020-11-01T08:50:00Z,27.7297,-91.1086,12.8,25.9,11111222
ADCP,ioos:station:wmo:42388:1,2020-11-01T09:01:00Z,27.7297,-91.1086,12.9,25.9,11111222
ADCP,ioos:station:wmo:42388:1,2020-11-01T09:11:00Z,27.7297,-91.1086,12.9,25.9,11111222
ADCP,ioos:station:wmo:42388:1,2020-11-01T09:21:00Z,27.7297,-91.1086,12.8,25.9,11111222
ADCP,ioos:station:wmo:42388:1,2020-11-01T09:31:00Z,27.7297,-91.1086,12.8,25.9,11111222
ADCP,ioos:station:wmo:42388:1,2020-11-01T09:41:00Z,27.7297,-91.1086,12.9,25.9,11111222
ADCP,ioos:station:wmo:42388:1,2020-11-01T09:51:00Z,27.7297,-91.1086,12.6,25.9,11111222
ADCP,ioos:station:wmo:42388:1,2020-11-01T10:01:00Z,27.7297,-91.1086,12.7,25.9,11111222
ADCP,ioos:station:wmo:42388:1,2020-11-01T10:11:00Z,27.7297,-91.1086,12.8,25.9,11111222
ADCP,ioos:station:wmo:42388:1,2020-11-01T10:21:00Z,27.7297,-91.1086,12.8,25.9,11111222
ADCP,ioos:station:wmo:42388:1,2020-11-01T10:31:00Z,27.7297,-91.1086,12.9,25.9,11111222
ADCP,ioos:station:wmo:42388:1,2020-11-01T10:41:00Z,27.7297,-91.1086,12.9,25.9,11111222
ADCP,ioos:station:wmo:42388:1,2020-11-01T10:51:00Z,27.7297,-91.1086,12.5,25.9,11111222
ADCP,ioos:station:wmo:42388:1,2020-11-01T11:01:00Z,27.7297,-91.1086,12.8,25.9,11111222
ADCP,ioos:station:wmo:42388:1,2020-11-01T11:11:00Z,27.7297,-91.1086,12.5,25.9,11111222
ADCP,ioos:station:wmo:42388:1,2020-11-01T11:21:00Z,27.7297,-91.1086,12.5,25.9,11111222
ADCP,ioos:station:wmo:42388:1,2020-11-01T11:31:00Z,27.7297,-91.1086,12.8,25.9,11111222
ADCP,ioos:station:wmo:42388:1,2020-11-01T11:41:00Z,27.7297,-91.1086,12.8,25.9,11111222
ADCP,ioos:station:wmo:42388:1,2020-11-01T11:51:00Z,27.7297,-91.1086,12.4,25.9,11111222
ADCP,ioos:station:wmo:42388:1,2020-11-01T12:01:00Z,27.7297,-91.1086,12.7,25.9,11111222
ADCP,ioos:station:wmo:42388:1,2020-11-01T12:11:00Z,27.7297,-91.1086,12.5,25.9,11111222
ADCP,ioos:station:wmo:42388:1,2020-11-01T12:21:00Z,27.7297,-91.1086,12.7,25.8,11111222
ADCP,ioos:station:wmo:42388:1,2020-11-01T12:31:00Z,27.7297,-91.1086,12.7,25.8,11111222
ADCP,ioos:station:wmo:42388:1,2020-11-01T12:41:00Z,27.7297,-91.1086,12.7,25.8,11111222
ADCP,ioos:station:wmo:42388:1,2020-11-01T12:51:00Z,27.7297,-91.1086,12.8,25.9,11111222
ADCP,ioos:station:wmo:42388:1,2020-11-01T13:01:00Z,27.7297,-91.1086,12.6,25.8,11111222
ADCP,ioos:station:wmo:42388:1,2020-11-01T13:11:00Z,27.7297,-91.1086,12.5,25.8,11111222
ADCP,ioos:station:wmo:42388:1,2020-11-01T13:21:00Z,27.7297,-91.1086,12.6,25.8,11111222
ADCP,ioos:station:wmo:42388:1,2020-11-01T13:31:00Z,27.7297,-91.1086,12.5,25.9,11111222
ADCP,ioos:station:wmo:42388:1,2020-11-01T13:41:00Z,27.7297,-91.1086,12.8,25.8,11111222
ADCP,ioos:station:wmo:42388:1,2020-11-01T13:51:00Z,27.7297,-91.1086,12.6,25.8,11111222
ADCP,ioos:station:wmo:42388:1,2020-11-01T14:01:00Z,27.7297,-91.1086,13.0,25.8,11111222
ADCP,ioos:station:wmo:42388:1,2020-11-01T14:11:00Z,27.7297,-91.1086,12.9,25.8,11111222
ADCP,ioos:station:wmo:42388:1,2020-11-01T14:21:00Z,27.7297,-91.1086,12.5,25.8,11111222
ADCP,ioos:station:wmo:42388:1,2020-11-01T14:31:00Z,27.7297,-91.1086,13.0,25.8,11111222
ADCP,ioos:station:wmo:42388:1,2020-11-01T14:41:00Z,27.7297,-91.1086,12.7,25.8,11111222
ADCP,ioos:station:wmo:42388:1,2020-11-01T14:51:00Z,27.7297,-91.1086,12.5,25.8,11111222
ADCP,ioos:station:wmo:42388:1,2020-11-01T15:01:00Z,27.7297,-91.1086,12.9,25.8,11111222
ADCP,ioos:station:wmo:42388:1,2020-11-01T15:11:00Z,27.7297,-91.1086,12.9,25.8,11111222
ADCP,ioos:station:wmo:42388:1,2020-11-01T15:21:00Z,27.7297,-91.1086,12.8,25.8,11111222
ADCP,ioos:station:wmo:42388:1,2020-11-01T15:31:00Z,27.7297,-91.1086,12.7,25.8,11111222
ADCP,ioos:station:wmo:42388:1,2020-11-01T15:41:00Z,27.7297,-91.1086,12.9,25.8,11111222
ADCP,ioos:station:wmo:42388:1,2020-11-01T15:51:00Z,27.7297,-91.1086,12.7,25.8,11111222
ADCP,ioos:station:wmo:42388:1,2020-11-01T16:01:00Z,27.7297,-91.1086,12.7,25.8,11111222
ADCP,ioos:station:wmo:42388:1,2020-11-01T16:11:00Z,27.7297,-91.1086,12.8,25.8,11111222
ADCP,ioos:station:wmo:42388:1,2020-11-01T16:21:00Z,27.7297,-91.1086,12.7,25.8,11111222
ADCP,ioos:station:wmo:42388:1,2020-11-01T16:31:00Z,27.7297,-91.1086,12.9,25.8,11111222
ADCP,ioos:station:wmo:42388:1,2020-11-01T16:41:00Z,27.7297,-91.1086,13.0,25.8,11111222
ADCP,ioos:station:wmo:42388:1,2020-11-01T16:51:00Z,27.7297,-91.1086,13.0,25.8,11111222
ADCP,ioos:station:wmo:42388:1,2020-11-01T17:01:00Z,27.7297,-91.1086,12.7,25.8,11111222
ADCP,ioos:station:wmo:42388:1,2020-11-01T17:11:00Z,27.7297,-91.1086,12.7,25.8,11111222
ADCP,ioos:station:wmo:42388:1,2020-11-01T17:21:00Z,27.7297,-91.1086,12.2,25.8,11111222
ADCP,ioos:station:wmo:42388:1,2020-11-01T17:31:00Z,27.7297,-91.1086,12.7,25.8,11111222
ADCP,ioos:station:wmo:42388:1,2020-11-01T17:41:00Z,27.7297,-91.1086,12.4,25.8,11111222
ADCP,ioos:station:wmo:42388:1,2020-11-01T17:51:00Z,27.7297,-91.1086,12.3,25.8,11111222
ADCP,ioos:station:wmo:42388:1,2020-11-01T18:01:00Z,27.7297,-91.1086,12.7,25.8,11111222
ADCP,ioos:station:wmo:42388:1,2020-11-01T18:11:00Z,27.7297,-91.1086,12.7,25.8,11111222
ADCP,ioos:station:wmo:42388:1,2020-11-01T18:21:00Z,27.7297,-91.1086,12.8,25.8,11111222
ADCP,ioos:station:wmo:42388:1,2020-11-01T18:31:00Z,27.7297,-91.1086,12.7,25.8,11111222
ADCP,ioos:station:wmo:42388:1,2020-11-01T18:41:00Z,27.7297,-91.1086,12.8,25.8,11111222
ADCP,ioos:station:wmo:42388:1,2020-11-01T18:51:00Z,27.7297,-91.1086,12.6,25.8,11111222
ADCP,ioos:station:wmo:42388:1,2020-11-01T19:01:00Z,27.7297,-91.1086,12.6,25.8,11111222
ADCP,ioos:station:wmo:42388:1,2020-11-01T19:11:00Z,27.7297,-91.1086,12.7,25.8,11111222
ADCP,ioos:station:wmo:42388:1,2020-11-01T19:21:00Z,27.7297,-91.1086,12.6,25.8,11111222
ADCP,ioos:station:wmo:42388:1,2020-11-01T19:31:00Z,27.7297,-91.1086,12.6,25.8,11111222
ADCP,ioos:station:wmo:42388:1,2020-11-01T19:41:00Z,27.7297,-91.1086,12.7,25.8,11111222
ADCP,ioos:station:wmo:42388:1,2020-11-01T19:51:00Z,27.7297,-91.1086,12.8,25.8,11111222
ADCP,ioos:station:wmo:42388:1,2020-11-01T20:01:00Z,27.7297,-91.1086,12.7,25.8,11111222
ADCP,ioos:station:wmo:42388:1,2020-11-01T20:11:00Z,27.7297,-91.1086,12.6,25.8,11111222
ADCP,ioos:station:wmo:42388:1,2020-11-01T20:21:00Z,27.7297,-91.1086,12.9,25.9,11111222
ADCP,ioos:station:wmo:42388:1,2020-11-01T20:31:00Z,27.7297,-91.1086,13.0,25.9,11111222
ADCP,ioos:station:wmo:42388:1,2020-11-01T20:41:00Z,27.7297,-91.1086,12.8,25.9,11111222
ADCP,ioos:station:wmo:42388:1,2020-11-01T20:51:00Z,27.7297,-91.1086,12.7,26.0,11111222
ADCP,ioos:station:wmo:42388:1,2020-11-01T21:01:00Z,27.7297,-91.1086,12.9,26.0,11111222
ADCP,ioos:station:wmo:42388:1,2020-11-01T21:11:00Z,27.7297,-91.1086,12.7,26.0,11111222
ADCP,ioos:station:wmo:42388:1,2020-11-01T21:21:00Z,27.7297,-91.1086,12.7,26.0,11111222
ADCP,ioos:station:wmo:42388:1,2020-11-01T21:31:00Z,27.7297,-91.1086,12.9,26.1,11111222
ADCP,ioos:station:wmo:42388:1,2020-11-01T21:41:00Z,27.7297,-91.1086,12.7,26.1,11111222
ADCP,ioos:station:wmo:42388:1,2020-11-01T21:51:00Z,27.7297,-91.1086,12.7,26.1,11111222
ADCP,ioos:station:wmo:42388:1,2020-11-01T22:01:00Z,27.7297,-91.1086,12.9,26.1,11111222
ADCP,ioos:station:wmo:42388:1,2020-11-01T22:11:00Z,27.7297,-91.1086,12.8,26.1,11111222
ADCP,ioos:station:wmo:42388:1,2020-11-01T22:21:00Z,27.7297,-91.1086,13.1,26.1,11111222
ADCP,ioos:station:wmo:42388:1,2020-11-01T22:31:00Z,27.7297,-91.1086,12.8,26.1,11111222
ADCP,ioos:station:wmo:42388:1,2020-11-01T22:41:00Z,27.7297,-91.1086,12.8,26.1,11111222
ADCP,ioos:station:wmo:42388:1,2020-11-01T22:51:00Z,27.7297,-91.1086,12.9,26.1,11111222
ADCP,ioos:station:wmo:42388:1,2020-11-01T23:01:00Z,27.7297,-91.1086,13.0,26.1,11111222
ADCP,ioos:station:wmo:42388:1,2020-11-01T23:11:00Z,27.7297,-91.1086,13.1,26.1,11111222
ADCP,ioos:station:wmo:42388:1,2020-11-01T23:21:00Z,27.7297,-91.1086,13.0,26.1,11111222
ADCP,ioos:station:wmo:42388:1,2020-11-01T23:31:00Z,27.7297,-91.1086,13.1,26.1,11111222
ADCP,ioos:station:wmo:42388:1,2020-11-01T23:41:00Z,27.7297,-91.1086,13.0,26.1,11111222
ADCP,ioos:station:wmo:42388:1,2020-11-01T23:51:00Z,27.7297,-91.1086,12.8,26.1,11111222
ADCP,ioos:station:wmo:42388:1,2020-11-02T00:01:00Z,27.7297,-91.1086,13.1,26.1,11111222
ADCP,ioos:station:wmo:42388:1,2020-11-02T00:11:00Z,27.7297,-91.1086,13.0,26.1,11111222
ADCP,ioos:station:wmo:42388:1,2020-11-02T00:21:00Z,27.7297,-91.1086,13.1,26.1,11111222
ADCP,ioos:station:wmo:42388:1,2020-11-02T00:31:00Z,27.7297,-91.1086,12.7,26.1,11111222
ADCP,ioos:station:wmo:42388:1,2020-11-02T00:41:00Z,27.7297,-91.1086,12.9,26.1,11111222
ADCP,ioos:station:wmo:42388:1,2020-11-02T00:51:00Z,27.7297,-91.1086,13.3,26.1,11111222
ADCP,ioos:station:wmo:42388:1,2020-11-02T01:01:00Z,27.7297,-91.1086,12.9,26.1,11111222
ADCP,ioos:station:wmo:42388:1,2020-11-02T01:11:00Z,27.7297,-91.1086,12.8,26.1,11111222
ADCP,ioos:station:wmo:42388:1,2020-11-02T01:21:00Z,27.7297,-91.1086,13.0,26.1,11111222
ADCP,ioos:station:wmo:42388:1,2020-11-02T01:31:00Z,27.7297,-91.1086,13.0,26.1,11111222
ADCP,ioos:station:wmo:42388:1,2020-11-02T01:41:00Z,27.7297,-91.1086,13.3,26.1,11111222
ADCP,ioos:station:wmo:42388:1,2020-11-02T01:51:00Z,27.7297,-91.1086,13.0,26.0,11111222
ADCP,ioos:station:wmo:42388:1,2020-11-02T02:01:00Z,27.7297,-91.1086,12.9,26.0,11111222
ADCP,ioos:station:wmo:42388:1,2020-11-02T02:11:00Z,27.7297,-91.1086,13.0,26.0,11111222
ADCP,ioos:station:wmo:42388:1,2020-11-02T02:21:00Z,27.7297,-91.1086,12.7,26.0,11111222
ADCP,ioos:station:wmo:42388:1,2020-11-02T02:32:00Z,27.7297,-91.1086,13.1,26.0,11111222
ADCP,ioos:station:wmo:42388:1,2020-11-02T02:42:00Z,27.7297,-91.1086,13.1,26.1,11111222
ADCP,ioos:station:wmo:42388:1,2020-11-02T02:52:00Z,27.7297,-91.1086,13.0,26.1,11111222
ADCP,ioos:station:wmo:42388:1,2020-11-02T03:02:00Z,27.7297,-91.1086,13.4,26.1,11111222
ADCP,ioos:station:wmo:42388:1,2020-11-02T03:12:00Z,27.7297,-91.1086,13.0,26.1,11111222
ADCP,ioos:station:wmo:42388:1,2020-11-02T03:22:00Z,27.7297,-91.1086,13.3,26.1,11111222
ADCP,ioos:station:wmo:42388:1,2020-11-02T03:32:00Z,27.7297,-91.1086,12.9,26.1,11111222
ADCP,ioos:station:wmo:42388:1,2020-11-02T03:42:00Z,27.7297,-91.1086,12.7,26.1,11111222
ADCP,ioos:station:wmo:42388:1,2020-11-02T03:52:00Z,27.7297,-91.1086,12.9,26.1,11111222
ADCP,ioos:station:wmo:42388:1,2020-11-02T04:02:00Z,27.7297,-91.1086,12.9,26.1,11111222
ADCP,ioos:station:wmo:42388:1,2020-11-02T04:12:00Z,27.7297,-91.1086,12.8,26.1,11111222
ADCP,ioos:station:wmo:42388:1,2020-11-02T04:22:00Z,27.7297,-91.1086,12.8,26.1,11111222
ADCP,ioos:station:wmo:42388:1,2020-11-02T04:32:00Z,27.7297,-91.1086,12.9,26.1,11111222
ADCP,ioos:station:wmo:42388:1,2020-11-02T04:42:00Z,27.7297,-91.1086,12.6,26.1,11111222
ADCP,ioos:station:wmo:42388:1,2020-11-02T04:52:00Z,27.7297,-91.1086,12.9,26.1,11111222
ADCP,ioos:station:wmo:42388:1,2020-11-02T05:02:00Z,27.7297,-91.1086,12.8,26.1,11111222
ADCP,ioos:station:wmo:42388:1,2020-11-02T05:12:00Z,27.7297,-91.1086,12.9,26.1,11111222
ADCP,ioos:station:wmo:42388:1,2020-11-02T05:22:00Z,27.7297,-91.1086,12.9,26.1,11111222
ADCP,ioos:station:wmo:42388:1,2020-11-02T05:32:00Z,27.7297,-91.1086,12.9,26.0,11111222
ADCP,ioos:station:wmo:42388:1,2020-11-02T05:42:00Z,27.7297,-91.1086,12.9,26.0,11111222
ADCP,ioos:station:wmo:42388:1,2020-11-02T05:52:00Z,27.7297,-91.1086,13.1,26.0,11111222
ADCP,ioos:station:wmo:42388:1,2020-11-02T06:02:00Z,27.7297,-91.1086,13.0,26.0,11111222
ADCP,ioos:station:wmo:42388:1,2020-11-02T06:12:00Z,27.7297,-91.1086,12.7,26.0,11111222
ADCP,ioos:station:wmo:42388:1,2020-11-02T06:22:00Z,27.7297,-91.1086,13.2,26.0,11111222
ADCP,ioos:station:wmo:42388:1,2020-11-02T06:32:00Z,27.7297,-91.1086,12.8,26.0,11111222
ADCP,ioos:station:wmo:42388:1,2020-11-02T06:42:00Z,27.7297,-91.1086,12.8,26.0,11111222
ADCP,ioos:station:wmo:42388:1,2020-11-02T06:52:00Z,27.7297,-91.1086,12.7,26.0,11111222
ADCP,ioos:station:wmo:42388:1,2020-11-02T07:02:00Z,27.7297,-91.1086,12.9,26.0,11111222
ADCP,ioos:station:wmo:42388:1,2020-11-02T07:12:00Z,27.7297,-91.1086,13.1,26.0,11111222
ADCP,ioos:station:wmo:42388:1,2020-11-02T07:22:00Z,27.7297,-91.1086,12.7,26.0,11111222
ADCP,ioos:station:wmo:42388:1,2020-11-02T07:32:00Z,27.7297,-91.1086,12.9,26.0,11111222
ADCP,ioos:station:wmo:42388:1,2020-11-02T07:42:00Z,27.7297,-91.1086,13.0,26.0,11111222
ADCP,ioos:station:wmo:42388:1,2020-11-02T07:52:00Z,27.7297,-91.1086,12.8,26.0,11111222
ADCP,ioos:station:wmo:42388:1,2020-11-02T08:02:00Z,27.7297,-91.1086,12.8,26.0,11111222
ADCP,ioos:station:wmo:42388:1,2020-11-02T08:12:00Z,27.7297,-91.1086,12.8,26.0,11111222
ADCP,ioos:station:wmo:42388:1,2020-11-02T08:22:00Z,27.7297,-91.1086,12.8,26.0,11111222
ADCP,ioos:station:wmo:42388:1,2020-11-02T08:32:00Z,27.7297,-91.1086,12.9,26.0,11111222
ADCP,ioos:station:wmo:42388:1,2020-11-02T08:42:00Z,27.7297,-91.1086,13.0,26.0,11111222
ADCP,ioos:station:wmo:42388:1,2020-11-02T08:52:00Z,27.7297,-91.1086,12.7,26.0,11111222
ADCP,ioos:station:wmo:42388:1,2020-11-02T09:02:00Z,27.7297,-91.1086,12.9,26.0,11111222
ADCP,ioos:station:wmo:42388:1,2020-11-02T09:12:00Z,27.7297,-91.1086,12.8,26.0,11111222
ADCP,ioos:station:wmo:42388:1,2020-11-02T09:22:00Z,27.7297,-91.1086,13.0,26.0,11111222
ADCP,ioos:station:wmo:42388:1,2020-11-02T09:32:00Z,27.7297,-91.1086,12.6,26.0,11111222
ADCP,ioos:station:wmo:42388:1,2020-11-02T09:42:00Z,27.7297,-91.1086,12.6,26.0,11111222
ADCP,ioos:station:wmo:42388:1,2020-11-02T09:52:00Z,27.7297,-91.1086,13.0,26.0,11111222
ADCP,ioos:station:wmo:42388:1,2020-11-02T10:02:00Z,27.7297,-91.1086,13.3,26.0,11111222
ADCP,ioos:station:wmo:42388:1,2020-11-02T10:12:00Z,27.7297,-91.1086,13.0,26.0,11111222
ADCP,ioos:station:wmo:42388:1,2020-11-02T10:22:00Z,27.7297,-91.1086,13.0,26.0,11111222
ADCP,ioos:station:wmo:42388:1,2020-11-02T10:32:00Z,27.7297,-91.1086,13.1,26.0,11111222
ADCP,ioos:station:wmo:42388:1,2020-11-02T10:42:00Z,27.7297,-91.1086,13.0,26.0,11111222
ADCP,ioos:station:wmo:42388:1,2020-11-02T10:52:00Z,27.7297,-91.1086,12.9,26.0,11111222
ADCP,ioos:station:wmo:42388:1,2020-11-02T11:02:00Z,27.7297,-91.1086,13.3,26.0,11111222
ADCP,ioos:station:wmo:42388:1,2020-11-02T11:12:00Z,27.7297,-91.1086,13.3,26.0,11111222
ADCP,ioos:station:wmo:42388:1,2020-11-02T11:22:00Z,27.7297,-91.1086,13.3,26.0,11111222
ADCP,ioos:station:wmo:42388:1,2020-11-02T11:32:00Z,27.7297,-91.1086,13.0,26.0,11111222
ADCP,ioos:station:wmo:42388:1,2020-11-02T11:42:00Z,27.7297,-91.1086,13.0,26.0,11111222
ADCP,ioos:station:wmo:42388:1,2020-11-02T11:52:00Z,27.7297,-91.1086,12.9,26.0,11111222
ADCP,ioos:station:wmo:42388:1,2020-11-02T12:02:00Z,27.7297,-91.1086,12.9,25.9,11111222
ADCP,ioos:station:wmo:42388:1,2020-11-02T12:12:00Z,27.7297,-91.1086,13.0,25.9,11111222
ADCP,ioos:station:wmo:42388:1,2020-11-02T12:22:00Z,27.7297,-91.1086,13.2,25.9,11111222
ADCP,ioos:station:wmo:42388:1,2020-11-02T12:32:00Z,27.7297,-91.1086,13.0,26.0,11111222
ADCP,ioos:station:wmo:42388:1,2020-11-02T12:42:00Z,27.7297,-91.1086,13.3,25.9,11111222
ADCP,ioos:station:wmo:42388:1,2020-11-02T12:52:00Z,27.7297,-91.1086,13.4,26.0,11111222
ADCP,ioos:station:wmo:42388:1,2020-11-02T13:02:00Z,27.7297,-91.1086,13.3,26.0,11111222
ADCP,ioos:station:wmo:42388:1,2020-11-02T13:12:00Z,27.7297,-91.1086,13.5,26.0,11111222
ADCP,ioos:station:wmo:42388:1,2020-11-02T13:22:00Z,27.7297,-91.1086,13.1,26.0,11111222
ADCP,ioos:station:wmo:42388:1,2020-11-02T13:32:00Z,27.7297,-91.1086,13.2,26.0,11111222
ADCP,ioos:station:wmo:42388:1,2020-11-02T13:42:00Z,27.7297,-91.1086,13.3,26.0,11111222
ADCP,ioos:station:wmo:42388:1,2020-11-02T13:52:00Z,27.7297,-91.1086,13.3,26.0,11111222
ADCP,ioos:station:wmo:42388:1,2020-11-02T14:02:00Z,27.7297,-91.1086,13.0,26.0,11111222
ADCP,ioos:station:wmo:42388:1,2020-11-02T14:12:00Z,27.7297,-91.1086,13.5,26.0,11111222
ADCP,ioos:station:wmo:42388:1,2020-11-02T14:22:00Z,27.7297,-91.1086,13.4,26.0,11111222
ADCP,ioos:station:wmo:42388:1,2020-11-02T14:32:00Z,27.7297,-91.1086,13.2,26.0,11111222
ADCP,ioos:station:wmo:42388:1,2020-11-02T14:42:00Z,27.7297,-91.1086,13.0,26.0,11111222
ADCP,ioos:station:wmo:42388:1,2020-11-02T14:52:00Z,27.7297,-91.1086,13.1,26.0,11111222
ADCP,ioos:station:wmo:42388:1,2020-11-02T15:02:00Z,27.7297,-91.1086,13.3,26.0,11111222
ADCP,ioos:station:wmo:42388:1,2020-11-02T15:12:00Z,27.7297,-91.1086,13.1,26.0,11111222
ADCP,ioos:station:wmo:42388:1,2020-11-02T15:22:00Z,27.7297,-91.1086,13.2,26.0,11111222
ADCP,ioos:station:wmo:42388:1,2020-11-02T15:32:00Z,27.7297,-91.1086,13.0,26.0,11111222
ADCP,ioos:station:wmo:42388:1,2020-11-02T15:42:00Z,27.7297,-91.1086,13.1,26.0,11111222
ADCP,ioos:station:wmo:42388:1,2020-11-02T15:52:00Z,27.7297,-91.1086,13.0,26.0,11111222
ADCP,ioos:station:wmo:42388:1,2020-11-02T16:02:00Z,27.7297,-91.1086,12.8,26.0,11111222
ADCP,ioos:station:wmo:42388:1,2020-11-02T16:12:00Z,27.7297,-91.1086,12.9,25.9,11111222
ADCP,ioos:station:wmo:42388:1,2020-11-02T16:22:00Z,27.7297,-91.1086,12.9,25.9,11111222
ADCP,ioos:station:wmo:42388:1,2020-11-02T16:32:00Z,27.7297,-91.1086,12.9,25.9,11111222
ADCP,ioos:station:wmo:42388:1,2020-11-02T16:42:00Z,27.7297,-91.1086,13.0,25.9,11111222
ADCP,ioos:station:wmo:42388:1,2020-11-02T16:52:00Z,27.7297,-91.1086,12.8,25.9,11111222
ADCP,ioos:station:wmo:42388:1,2020-11-02T17:02:00Z,27.7297,-91.1086,12.8,26.0,11111222
ADCP,ioos:station:wmo:42388:1,2020-11-02T17:12:00Z,27.7297,-91.1086,12.9,26.0,11111222
ADCP,ioos:station:wmo:42388:1,2020-11-02T17:22:00Z,27.7297,-91.1086,12.9,26.0,11111222
ADCP,ioos:station:wmo:42388:1,2020-11-02T17:32:00Z,27.7297,-91.1086,12.8,26.0,11111222
ADCP,ioos:station:wmo:42388:1,2020-11-02T17:42:00Z,27.7297,-91.1086,13.1,26.0,11111222
ADCP,ioos:station:wmo:42388:1,2020-11-02T17:52:00Z,27.7297,-91.1086,12.8,26.0,11111222
ADCP,ioos:station:wmo:42388:1,2020-11-02T18:02:00Z,27.7297,-91.1086,12.7,26.0,11111222
ADCP,ioos:station:wmo:42388:1,2020-11-02T18:12:00Z,27.7297,-91.1086,13.1,26.0,11111222
ADCP,ioos:station:wmo:42388:1,2020-11-02T18:22:00Z,27.7297,-91.1086,12.9,26.0,11111222
ADCP,ioos:station:wmo:42388:1,2020-11-02T18:32:00Z,27.7297,-91.1086,13.0,26.0,11111222
ADCP,ioos:station:wmo:42388:1,2020-11-02T18:42:00Z,27.7297,-91.1086,12.8,26.0,11111222
ADCP,ioos:station:wmo:42388:1,2020-11-02T18:52:00Z,27.7297,-91.1086,12.6,26.0,11111222
ADCP,ioos:station:wmo:42388:1,2020-11-02T19:02:00Z,27.7297,-91.1086,12.8,26.0,11111222
ADCP,ioos:station:wmo:42388:1,2020-11-02T19:12:00Z,27.7297,-91.1086,12.8,26.0,11111222
ADCP,ioos:station:wmo:42388:1,2020-11-02T19:22:00Z,27.7297,-91.1086,12.9,26.0,11111222
ADCP,ioos:station:wmo:42388:1,2020-11-02T19:32:00Z,27.7297,-91.1086,12.3,26.0,11111222
ADCP,ioos:station:wmo:42388:1,2020-11-02T19:42:00Z,27.7297,-91.1086,12.4,26.0,11111222
ADCP,ioos:station:wmo:42388:1,2020-11-02T19:52:00Z,27.7297,-91.1086,12.2,25.9,11111222
ADCP,ioos:station:wmo:42388:1,2020-11-02T20:03:00Z,27.7297,-91.1086,12.3,25.9,11111222
ADCP,ioos:station:wmo:42388:1,2020-11-02T20:13:00Z,27.7297,-91.1086,12.5,25.9,11111222
ADCP,ioos:station:wmo:42388:1,2020-11-02T20:23:00Z,27.7297,-91.1086,12.9,26.0,11111222
ADCP,ioos:station:wmo:42388:1,2020-11-02T20:33:00Z,27.7297,-91.1086,12.9,26.0,11111222
ADCP,ioos:station:wmo:42388:1,2020-11-02T20:43:00Z,27.7297,-91.1086,12.9,26.0,11111222
ADCP,ioos:station:wmo:42388:1,2020-11-02T20:53:00Z,27.7297,-91.1086,12.8,26.0,11111222
ADCP,ioos:station:wmo:42388:1,2020-11-02T21:03:00Z,27.7297,-91.1086,13.1,26.0,11111222